Regional Weather Roundup
Issued by NWS

Home | Current Version | Previous Version | Graphics & Text | Print | Product List | Glossary On
Versions: 1 2 3 4 5 6 7 8 9 10 11 12 13 14 15 16 17 18 19 20 21 22 23 24 25 26 27 28 29 30 31 32 33 34 35 36 37 38 39 40 41 42 43 44 45 46 47 48 49 50
215
ASUS43 KLOT 190003
RWRIL

ILLINOIS REGIONAL WEATHER ROUNDUP
NATIONAL WEATHER SERVICE CHICAGO/ROMEOVILLE IL
600 PM CST SUN FEB 18 2018

NOTE: "FAIR" INDICATES FEW OR NO CLOUDS BELOW 12,000 FEET WITH NO
SIGNIFICANT WEATHER AND/OR OBSTRUCTIONS TO VISIBILITY.

* THESE STATIONS ARE NOT UNDER NWS QUALITY CONTROL. THEY ALSO MAY NOT
  REPORT WEATHER SUCH AS PRECIPITATION OR FOG.

ILZ001-002-007-009-015-016-024-190100-
NORTHWEST ILLINOIS

CITY           SKY/WX    TMP DP  RH WIND       PRES   REMARKS
MOLINE         FAIR      42  30  62 SE15G26   29.82F
6HR MIN TEMP:  36; 6HR MAX TEMP:  45;

STERLING*      FAIR      38  31  76 SE12G20   29.89F WCI  30
SAVANNA*       FAIR      37  31  78 SE16      29.85F WCI  28
$$

ILZ003-004-008-010-011-017-018-190100-
NORTH CENTRAL ILLINOIS

CITY           SKY/WX    TMP DP  RH WIND       PRES   REMARKS
ROCKFORD       CLOUDY    36  30  79 S18G28    29.91F WCI  26
6HR MIN TEMP:  28; 6HR MAX TEMP:  36;

FREEPORT*      FAIR      35  31  85 SE20      29.88F WCI  24
ROCHELLE*      FAIR      35  32  89 SE17      29.92F WCI  24
DE KALB*       FAIR      33  31  91 SE17      29.94F WCI  22
PERU*          FAIR      39  32  77 SE20G29   29.93F WCI  29
$$

ILZ005-006-012>014-019>023-190100-
NORTHEAST ILLINOIS

CITY           SKY/WX    TMP DP  RH WIND       PRES   REMARKS
CHICAGO-OHARE  MOCLDY    36  29  75 SE18      29.99F WCI  26
6HR MIN TEMP:  30; 6HR MAX TEMP:  38;

CHICAGO-MIDWAY MOCLDY    38  30  73 SE14      30.00F WCI  30
6HR MIN TEMP:  31; 6HR MAX TEMP:  39;

AURORA         FAIR      35  30  82 SE16      29.96F WCI  25
6HR MIN TEMP:  28; 6HR MAX TEMP:  37;

LANSING*       FAIR      36  32  85 SE12      30.03F WCI  28
JOLIET*        FAIR      37  33  82 SE9       30.00F WCI  31
WAUKEGAN       FAIR      34  29  82 S20       29.96F WCI  23
6HR MIN TEMP:  32; 6HR MAX TEMP:  37;

DUPAGE AIRPORT FAIR      36  31  82 SE16      29.96F WCI  26
6HR MIN TEMP:  28; 6HR MAX TEMP:  36;

KANKAKEE*      FAIR      36  32  84 SE13      30.03F WCI  28
WHEELING       FAIR      37  29  72 S15G24    30.00F WCI  28
6HR MIN TEMP:  32; 6HR MAX TEMP:  39;

MORRIS*        FAIR      37  32  80 SE14      29.97F WCI  29
ROMEOVILLE*    FAIR      35  31  85 SE17      29.99F WCI  25
NORTHERLY ISL    N/A     35  29  79 SE13        N/A  WCI  26
$$

LMZ740>746-190100-
SOUTHERN LAKE MICHIGAN

STATION/POSITION SKY/WX   TEMP    WIND        PRES    VSBY  WAVE
                          AIR SEA DIR/SP/G                  HT/PER
                          (F)     (DEG/KT/KT) (MB)    (MI)  (FT/S)
HARRISON CRIB              35     140/ 16/ 19   N/A
BURNHAM HARBOR             35     140/ 10/ 16   N/A
CALUMET HARBOR             36     130/ 10/ 16 1016.4F
BURNS HARBOR               36     160/  9/ 14 1018.3F
MICHIGAN CITY              36     130/ 16/ 20   N/A
$$

ILZ025>027-034>036-040-047-049-050-058-095>099-190100-
WEST-CENTRAL ILLINOIS

CITY           SKY/WX    TMP DP  RH WIND       PRES   REMARKS
QUINCY         CLEAR     47  28  47 SE16      29.83F
GALESBURG*     FAIR      42  32  68 SE13G20   29.85F
MACOMB*        CLEAR     42  31  66 SE14      29.88F
JACKSONVILLE*  CLOUDY    44  30  57 SE16G23   29.90F
PITTSFIELD*    CLOUDY    45  31  58 SE12      29.89S
$$

ILZ028>032-037-038-041>044-048-051>054-059>061-190100-
CENTRAL ILLINOIS

CITY           SKY/WX    TMP DP  RH WIND       PRES   REMARKS
PONTIAC        FAIR      39  36  89 SE16      29.99F WCI  30
BLOOMINGTON    FAIR      39  33  79 SE18      29.96F WCI  30
DECATUR        FAIR      43  34  70 SE14      30.00F
PEORIA         FAIR      43  32  65 S16G25    29.92F
6HR MIN TEMP:  39; 6HR MAX TEMP:  47;

LACON*         FAIR      40  32  73 S16G23    29.91F
LINCOLN*       FAIR      41  35  80 SE12      29.95F
SPRINGFIELD    FAIR      46  33  60 S20       29.94F
6HR MIN TEMP:  46; 6HR MAX TEMP:  51;

TAYLORVILLE    FAIR      44  33  66 SE13G20   29.98F
6HR MIN TEMP:  43; 6HR MAX TEMP:  48;

$$

ILZ033-039-045-046-055>057-062-063-190100-
EAST-CENTRAL ILLINOIS

CITY           SKY/WX    TMP DP  RH WIND       PRES   REMARKS
CHAMPAIGN      FAIR      38  33  82 SE13      30.03F WCI  30
DANVILLE*      FAIR      41  31  68 SE10      30.03F
RANTOUL*       FAIR      40  35  81 SE10      30.03F
MATTOON        FAIR      44  33  65 S13       30.04F
PARIS*         FAIR      41  34  77 SE12      30.07F
$$

ILZ079-100>102-190100-
SOUTHWEST ILLINOIS

CITY           SKY/WX    TMP DP  RH WIND       PRES   REMARKS
ALTON          MOCLDY    46  32  57 SE14G21   29.97F
BELLEVILLE     CLOUDY    48  33  55 S9        29.98F
CAHOKIA*       CLOUDY    49  32  52 S13G23    29.97F
SPARTA*        CLOUDY    49  36  60 SE13G18   30.00F
$$

ILZ064>066-069>071-074>076-080>082-084>086-088>090-092>094-190100-
SOUTH-CENTRAL ILLINOIS

CITY           SKY/WX    TMP DP  RH WIND       PRES   REMARKS
CARBONDALE     FAIR      50  34  54 S13       30.04F
6HR MIN TEMP:  49; 6HR MAX TEMP:  54;

CAIRO*         MOCLDY    52  37  58 SE5       30.08F
EFFINGHAM*     FAIR      46  34  63 E13       30.06F
MARION         MOCLDY    50  32  50 SE9       30.05F
MT. VERNON     FAIR      47  36  65 SE8       30.05F
CENTRALIA*     CLOUDY    47  37  67 SE8       30.01F
SALEM*         FAIR      48  35  62 SE10      30.03F
METROPOLIS*    CLOUDY    53  35  51 SE3       30.08F
$$

ILZ067-068-072-073-078-083-087-091-190100-
SOUTHEAST ILLINOIS

CITY           SKY/WX    TMP DP  RH WIND       PRES   REMARKS
LAWRENCEVILLE  FAIR      45  36  70 SE9       30.11F
FLORA*         FAIR      46  36  68 SE7       30.06F
FAIRFIELD*     FAIR      46  36  69 SE7       30.05F
HARRISBURG*    FAIR      48  37  66 SE9       30.08S
ROBINSON*      FAIR      44  32  64 SE8       30.10F
CARMI*         FAIR      45  37  75 SE9       30.06F
$$

ABBREVIATIONS USED IN REMARKS
   TC - TEMPERATURE IN CELSIUS
  WCI - WIND CHILL INDEX
   HX - HEAT INDEX
  VSB - VISIBILITY
$$





USA.gov is the U.S. government's official web portal to all federal, state and local government web resources and services.